AL-FARABI 1 (42016 NORAD) Tracking and Keplerian Element Data

This shows tracking and keplerian element data for the satellite.

Feedback or suggestion? Click here.




ElementValue
Catalog42016
NameAL-FARABI 1
Epoch Orbit35463
Epoch Day175.84501414
Epoch Year2023
RAAN247.3356
Inclination97.2071
Eccentricity0.0004719
Argument of Perigee234.3403
Mean Anonmoly125.7428
Mean Motion15.82676775
Decay Rate0.0033355
L11 42016U 17008BW 23175.84501414 .00333550 00000+0 15385-2 0 9996
L22 42016 97.2071 247.3356 0004719 234.3403 125.7428 15.82676775354635



Live tracking and technical data element details for AL-FARABI 1 (NORAD 42016). AL-FARABI 1 can be tracked NOW for your location showing map with azimuth and elevation plus other details from your city location.







IsCatalogInMostPopularTable: catalog: 42016, numindb: 308
Update: records affected: 1



GetName: 42016 AL-FARABI 1

Hit Count: updated at: Sat, 17 May 2025 09:06:45 GMT